Wind_Speed
12 11 10 9 8 8 7 7 6 6 6 6 4 4 6 6 7 7 6 5 5 5 6 6 7 6 6 6 4 6 6 5 5 5 5 5 6 6 7 7 7 8 8 7
12 11 10 10 8 8 9 9 8 8 7 7 6 5 6 6 6 5 5 5 5 5 6 6 6 6 5 5 5 6 5 5 5 5 6 6 6 6 7 8 8 8 8 8
13 11 10 10 9 8 9 9 9 8 9 8 7 7 7 7 7 6 6 6 6 6 6 6 6 5 5 5 5 5 6 6 6 6 7 7 7 7 8 8 8 8 8 8
14 13 12 11 10 9 9 9 9 9 8 8 8 8 8 8 8 8 7 7 7 7 6 6 6 6 5 5 5 6 7 6 6 7 7 8 8 8 8 8 8 9 9 10
14 14 13 12 10 10 10 11 11 10 10 10 10 10 8 9 9 9 9 8 9 8 8 7 7 7 7 7 6 6 7 7 7 7 8 8 8 9 9 10 10 11 11 12
15 15 13 12 11 11 11 11 11 12 12 12 12 13 11 11 11 10 10 10 10 10 9 8 8 8 8 7 7 7 8 8 8 8 9 9 9 10 10 11 11 12 13 14
14 15 14 13 13 12 11 11 11 12 13 13 13 14 13 12 12 12 12 11 11 11 10 10 10 9 8 8 8 8 8 9 9 8 9 10 10 10 11 11 13 14 14 15
15 15 14 13 13 13 13 12 13 13 14 13 14 14 14 13 13 13 14 13 12 12 11 11 11 10 10 9 9 9 9 10 10 10 10 10 11 12 13 13 14 15 15 15
15 14 14 14 14 14 14 13 13 14 14 14 15 14 13 12 12 13 13 12 12 12 11 12 12 10 10 10 10 10 11 11 11 11 11 11 12 13 13 14 15 16 16 15
15 15 15 14 14 14 15 14 14 14 16 16 16 14 13 13 13 13 13 12 12 12 11 11 10 9 10 11 12 12 12 12 12 13 13 13 13 14 14 15 17 18 17 17
17 16 16 15 15 15 15 15 15 15 16 17 17 16 14 15 15 15 14 14 13 13 12 11 11 11 11 12 13 13 14 15 15 15 14 15 15 15 16 17 19 18 18 18
17 17 17 17 16 16 16 16 17 17 18 18 19 18 16 16 16 16 15 15 15 14 14 14 14 14 13 14 14 15 15 16 17 17 16 16 16 16 17 18 19 20 20 20
19 19 18 18 18 18 18 19 19 20 20 20 20 19 19 18 17 16 16 17 16 15 15 15 15 15 15 15 16 16 17 17 17 18 18 17 18 18 18 18 19 20 21 21
21 21 21 20 20 20 21 21 22 23 22 22 21 20 20 19 19 18 18 18 18 17 17 17 16 17 17 17 17 18 18 18 18 19 18 18 18 18 19 19 20 21 21 21
24 23 23 22 22 23 23 23 23 23 22 22 21 21 20 21 20 20 18 18 18 17 17 18 18 17 18 18 18 19 19 19 19 20 20 20 19 19 20 21 22 22 21 21
27 26 25 24 24 25 25 24 23 22 22 22 22 21 20 21 21 20 19 18 18 18 19 19 18 18 18 19 18 19 19 20 20 20 20 20 21 21 21 21 22 21 21 21
29 29 27 26 26 27 26 24 24 23 23 23 22 21 21 20 20 20 20 19 19 20 20 20 19 19 19 19 19 19 19 20 21 20 20 22 22 22 22 22 22 22 23 23
29 29 29 29 29 29 26 25 24 24 24 24 24 23 22 21 21 20 20 20 20 20 21 20 20 20 20 20 20 20 20 20 20 21 21 22 23 23 22 23 23 23 23 23
30 30 31 31 30 29 27 25 24 24 24 24 25 24 23 22 21 21 21 21 21 20 21 21 21 21 21 22 21 20 20 20 21 21 22 22 22 23 23 23 24 24 25 24
30 31 31 31 31 30 27 27 26 26 25 24 24 24 23 22 22 22 22 22 21 21 21 22 21 21 22 22 21 21 21 21 21 22 23 23 23 23 24 24 24 24 25 25
31 30 30 30 30 30 29 28 27 27 24 23 23 23 23 22 22 23 23 22 22 22 22 22 22 22 22 23 22 21 21 22 22 22 23 23 23 24 24 24 24 25 26 25
32 32 31 31 31 30 29 29 28 27 25 25 25 24 24 24 24 24 24 23 23 23 22 23 22 22 22 22 22 21 22 22 22 22 22 23 24 24 24 24 24 25 24 25
33 33 32 32 31 30 30 29 29 28 28 28 27 26 26 26 25 25 25 25 24 24 24 23 23 23 22 22 22 22 22 22 21 21 22 22 23 23 24 24 25 25 25 25
35 34 33 32 32 31 30 29 29 28 28 28 28 27 26 26 26 26 26 26 25 25 23 22 23 23 23 22 22 22 21 21 21 22 22 22 22 23 24 24 25 25 25 25
35 35 35 34 33 32 31 31 30 30 29 28 27 27 26 27 27 27 28 27 27 26 24 24 24 25 24 22 22 22 22 22 22 22 22 23 23 23 24 24 25 25 25 25
34 34 34 34 34 33 32 32 31 31 30 29 28 27 27 27 27 27 28 27 27 26 25 24 23 23 23 23 23 23 22 22 22 22 23 23 23 24 24 24 25 25 25 24
Wind_Direction
228 232 244 249 252 253 254 267 276 285 301 302 300 322 330 340 351 0 357 358 357 360 4 3 2 7 8 10 10 360 1 4 4 358 350 345 345 338 334 331 325 323 322 319
234 235 243 251 254 245 250 263 271 274 279 289 290 301 318 322 333 343 342 343 337 335 343 346 350 352 354 350 350 349 349 348 346 342 341 338 332 329 329 326 327 325 322 319
237 235 241 249 249 247 254 261 268 273 276 285 290 296 307 319 321 322 325 328 327 330 332 327 331 335 339 339 338 337 337 334 333 332 331 330 328 323 318 318 320 320 319 318
232 234 240 246 248 248 251 259 265 266 275 287 292 295 302 310 315 316 314 313 311 311 309 308 314 319 323 319 319 321 323 324 327 326 325 325 325 323 318 315 314 312 311 310
229 234 240 242 245 246 249 256 262 269 276 282 292 297 309 307 313 317 317 311 308 306 300 302 307 310 311 310 308 312 316 316 320 322 320 320 320 321 319 315 311 308 305 304
229 231 238 240 242 248 251 255 265 273 279 286 297 303 308 310 310 310 312 310 302 301 295 295 300 303 304 302 304 307 309 308 313 316 319 320 316 317 314 313 309 304 302 302
228 234 237 236 238 247 251 255 267 277 283 293 296 301 308 309 306 305 304 303 298 296 295 295 298 300 301 298 300 303 306 308 312 313 315 315 314 313 312 310 308 306 301 300
229 229 234 237 241 249 255 261 270 282 286 291 295 298 307 305 304 305 304 300 297 296 296 294 294 293 291 292 298 303 303 305 308 305 305 307 311 312 312 309 308 307 303 301
228 230 234 239 243 250 258 264 272 279 285 290 295 297 302 303 302 303 305 302 297 295 294 292 288 289 291 292 297 303 305 302 302 303 300 301 305 309 309 306 308 307 304 302
229 232 234 240 245 253 258 261 266 274 284 290 295 299 301 302 305 307 308 304 297 294 293 295 289 288 293 294 294 295 299 299 300 302 303 302 303 303 302 300 303 304 304 303
233 235 235 237 241 247 253 258 262 271 281 289 294 301 301 301 302 305 303 301 296 293 291 292 290 291 295 294 293 291 293 295 298 300 299 299 300 300 301 299 301 301 303 303
237 240 240 241 244 245 251 256 261 270 279 284 289 296 298 300 300 304 306 303 296 292 293 292 290 289 292 292 290 289 295 297 298 298 297 298 297 298 299 299 298 299 301 300
241 243 244 246 248 254 257 261 265 269 274 280 285 293 296 297 296 298 302 304 299 293 292 291 290 287 289 289 288 288 290 293 295 295 294 295 297 297 298 298 298 300 301 300
244 248 251 255 258 259 260 262 266 270 272 276 283 289 293 291 291 293 295 298 295 292 290 292 291 290 291 289 288 287 287 290 292 292 292 294 297 297 298 299 300 302 303 301
249 253 256 259 259 261 262 264 266 268 270 274 281 287 288 290 291 290 290 293 291 289 288 291 290 290 292 289 288 287 286 288 289 289 291 294 296 297 298 299 300 304 304 302
251 256 257 258 259 262 264 265 266 267 269 273 278 285 289 290 290 287 286 288 289 287 288 288 287 290 291 289 289 289 288 289 289 289 291 295 294 295 297 299 301 303 304 301
252 255 256 257 260 262 265 265 264 265 268 274 278 283 286 286 286 284 284 286 288 287 287 289 287 289 290 289 289 289 291 291 289 288 291 293 294 294 297 300 301 302 303 302
252 255 256 258 259 262 265 265 265 266 267 271 276 279 279 281 281 281 284 284 284 285 287 287 285 285 286 287 288 287 288 290 289 290 291 293 295 295 296 297 298 300 301 300
255 256 256 258 259 262 263 266 267 266 267 269 273 274 277 279 279 282 284 284 281 281 283 284 284 282 285 287 288 286 287 288 290 292 292 294 295 295 296 298 298 299 301 299
256 258 257 257 259 262 263 265 267 269 271 273 274 273 274 275 278 281 282 282 282 282 283 284 282 282 284 285 285 287 287 288 291 293 293 294 295 297 297 298 299 300 301 299
255 256 257 258 260 261 262 264 268 270 273 275 275 274 274 275 277 279 280 281 280 279 282 283 283 283 285 285 285 290 287 287 291 292 293 294 295 296 298 299 300 300 301 300
253 254 255 257 259 261 262 264 266 268 270 271 274 275 274 275 276 277 278 279 278 277 279 281 280 280 284 287 289 290 286 287 291 292 294 295 295 296 297 299 300 302 302 301
254 255 255 257 259 261 261 263 264 265 267 270 272 274 277 277 276 276 276 277 275 276 277 277 278 280 285 287 288 289 289 290 292 292 294 295 295 296 297 298 300 302 301 302
255 255 256 257 258 260 260 261 262 264 266 269 271 272 276 277 276 275 276 275 276 278 280 281 282 282 282 284 286 287 290 289 290 293 295 296 296 296 297 298 299 300 301 301
254 255 255 256 257 259 260 261 262 263 264 267 270 272 273 274 274 274 274 274 276 276 281 282 283 283 283 282 286 287 288 288 289 293 296 297 296 296 296 297 298 298 300 300
253 254 255 256 257 259 259 260 261 262 264 267 267 269 270 271 272 273 274 275 276 278 281 282 282 284 287 288 288 287 286 287 291 295 298 298 297 297 298 299 300 300 300 302
Height
5893 5896 5896 5897 5898 5898 5898 5898 5898 5898 5898 5898 5897 5896 5895 5894 5893 5891 5890 5889 5888 5887 5886 5885 5883 5882 5881 5879 5878 5878 5877 5876 5875 5875 5874 5873 5873 5872 5871 5870 5869 5868 5867 5866
5893 5894 5895 5895 5896 5897 5897 5897 5897 5897 5897 5897 5896 5896 5895 5893 5892 5891 5890 5889 5887 5886 5885 5884 5883 5881 5880 5879 5878 5878 5877 5876 5875 5874 5873 5872 5871 5870 5870 5868 5867 5866 5866 5865
5891 5893 5893 5894 5894 5895 5896 5896 5896 5896 5896 5896 5895 5895 5894 5893 5892 5891 5889 5888 5886 5885 5884 5884 5882 5881 5879 5878 5878 5877 5876 5875 5874 5873 5872 5871 5870 5869 5868 5867 5865 5865 5864 5863
5888 5890 5891 5892 5893 5893 5894 5895 5894 5894 5894 5894 5894 5893 5893 5892 5891 5890 5888 5887 5886 5884 5883 5882 5881 5880 5878 5877 5877 5876 5875 5874 5872 5871 5871 5870 5869 5868 5867 5865 5864 5863 5862 5861
5886 5887 5888 5890 5891 5891 5892 5893 5893 5892 5892 5892 5892 5891 5892 5890 5889 5888 5887 5886 5885 5883 5882 5881 5880 5878 5877 5876 5875 5875 5874 5873 5871 5870 5869 5868 5867 5866 5865 5864 5862 5861 5860 5859
5884 5885 5886 5888 5889 5890 5890 5891 5891 5890 5890 5891 5891 5890 5890 5888 5887 5887 5886 5884 5883 5882 5880 5879 5878 5877 5875 5874 5873 5873 5872 5871 5870 5869 5868 5866 5865 5864 5862 5861 5860 5859 5857 5856
5882 5883 5884 5886 5887 5888 5888 5889 5889 5889 5888 5889 5888 5887 5888 5887 5885 5884 5883 5882 5881 5879 5878 5877 5876 5875 5873 5872 5872 5871 5870 5869 5868 5866 5865 5864 5862 5861 5860 5858 5857 5855 5854 5852
5879 5881 5882 5884 5885 5885 5886 5887 5888 5887 5886 5886 5885 5884 5886 5885 5883 5882 5881 5880 5878 5877 5876 5875 5874 5873 5872 5871 5869 5868 5867 5866 5865 5864 5863 5861 5860 5858 5857 5855 5854 5852 5850 5848
5877 5879 5880 5881 5882 5883 5883 5884 5885 5884 5884 5883 5883 5883 5883 5882 5881 5879 5878 5877 5876 5874 5873 5872 5871 5870 5869 5868 5867 5866 5865 5864 5863 5861 5860 5859 5857 5855 5854 5852 5850 5848 5846 5844
5873 5875 5877 5878 5879 5880 5881 5882 5882 5882 5881 5880 5880 5880 5880 5879 5878 5877 5876 5874 5873 5872 5871 5869 5868 5867 5867 5866 5864 5863 5862 5861 5859 5858 5857 5855 5854 5852 5850 5848 5847 5844 5842 5840
5870 5872 5874 5875 5876 5877 5878 5879 5878 5878 5878 5878 5877 5879 5878 5876 5875 5873 5872 5871 5869 5868 5867 5866 5865 5864 5863 5862 5861 5860 5859 5858 5856 5855 5853 5852 5850 5848 5846 5844 5842 5839 5837 5835
5866 5868 5870 5872 5873 5873 5874 5875 5875 5875 5875 5874 5874 5877 5874 5872 5871 5870 5869 5867 5865 5864 5863 5862 5861 5860 5859 5858 5857 5856 5855 5854 5852 5851 5849 5848 5846 5844 5842 5840 5838 5836 5833 5831
5862 5864 5866 5868 5870 5870 5870 5871 5871 5871 5871 5870 5870 5872 5869 5868 5867 5866 5865 5863 5862 5861 5860 5858 5857 5856 5855 5854 5853 5851 5850 5849 5848 5846 5845 5843 5841 5839 5837 5835 5833 5831 5829 5826
5858 5860 5862 5864 5864 5865 5865 5866 5866 5866 5866 5866 5866 5866 5865 5864 5863 5862 5861 5860 5858 5857 5856 5854 5853 5851 5850 5849 5848 5846 5845 5844 5843 5841 5840 5838 5836 5834 5833 5830 5828 5826 5824 5821
5852 5854 5856 5857 5858 5859 5860 5861 5861 5861 5861 5861 5861 5860 5860 5859 5858 5857 5857 5855 5854 5853 5851 5850 5848 5847 5845 5844 5843 5842 5840 5839 5838 5836 5835 5833 5831 5830 5828 5826 5823 5821 5818 5816
5846 5848 5850 5851 5852 5853 5853 5855 5855 5855 5855 5855 5855 5855 5855 5853 5852 5852 5851 5850 5849 5848 5847 5846 5844 5842 5841 5839 5838 5837 5835 5834 5832 5831 5830 5828 5826 5824 5822 5820 5818 5816 5813 5811
5840 5842 5843 5844 5846 5846 5847 5849 5849 5850 5850 5850 5849 5850 5849 5848 5847 5847 5846 5845 5844 5843 5842 5840 5839 5838 5836 5835 5833 5832 5830 5828 5827 5825 5824 5822 5820 5819 5817 5815 5813 5810 5807 5805
5833 5835 5836 5837 5839 5839 5843 5843 5843 5843 5844 5843 5843 5843 5843 5842 5842 5841 5840 5839 5838 5837 5836 5834 5833 5832 5831 5829 5828 5826 5825 5823 5821 5820 5818 5817 5815 5813 5811 5809 5807 5804 5801 5799
5827 5828 5829 5830 5830 5832 5835 5836 5837 5837 5837 5837 5837 5837 5836 5836 5836 5835 5834 5833 5832 5831 5830 5829 5827 5826 5825 5823 5822 5821 5819 5817 5816 5814 5813 5811 5809 5807 5805 5803 5801 5798 5795 5792
5819 5820 5822 5822 5824 5825 5829 5829 5829 5831 5831 5831 5831 5830 5830 5830 5830 5830 5829 5827 5826 5826 5825 5823 5822 5821 5819 5818 5816 5815 5813 5812 5810 5808 5807 5805 5803 5801 5799 5797 5794 5792 5789 5786
5811 5812 5814 5815 5816 5818 5821 5821 5823 5824 5825 5824 5824 5823 5823 5823 5823 5823 5822 5821 5820 5819 5819 5817 5816 5815 5813 5811 5810 5809 5807 5806 5804 5803 5801 5799 5797 5795 5793 5791 5788 5785 5782 5779
5803 5804 5806 5807 5809 5812 5813 5814 5815 5816 5817 5817 5817 5817 5817 5816 5816 5816 5815 5814 5813 5812 5812 5811 5810 5808 5807 5805 5804 5803 5802 5800 5798 5797 5795 5793 5791 5789 5787 5784 5781 5779 5776 5773
5794 5796 5798 5800 5803 5804 5805 5806 5807 5808 5809 5809 5810 5810 5810 5809 5809 5809 5808 5807 5806 5805 5804 5803 5802 5801 5800 5799 5798 5797 5795 5793 5792 5790 5788 5786 5784 5782 5780 5777 5775 5772 5770 5767
5785 5787 5789 5792 5793 5795 5796 5798 5799 5800 5801 5802 5802 5802 5802 5802 5801 5801 5800 5800 5799 5798 5797 5796 5795 5794 5793 5792 5791 5790 5788 5787 5785 5784 5782 5780 5778 5776 5773 5771 5768 5766 5763 5760
5776 5778 5780 5782 5785 5786 5788 5790 5791 5792 5793 5793 5794 5794 5794 5793 5793 5793 5793 5792 5792 5791 5791 5790 5789 5787 5786 5785 5784 5783 5782 5780 5779 5777 5775 5773 5771 5769 5767 5764 5761 5759 5756 5753
5767 5769 5771 5773 5775 5778 5779 5781 5783 5783 5784 5785 5785 5786 5786 5786 5785 5785 5785 5785 5784 5784 5783 5782 5781 5780 5779 5778 5777 5776 5775 5774 5772 5770 5769 5767 5765 5762 5760 5757 5754 5752 5750 5747